When you browse on this site, cookies collect data to enhance your experience and personalize the content and advertising you see.
Visit our Privacy Policy to learn more. By continuing to use the site, you agree to this use of cookies and data.
  • In United Kingdom
  • List of Countries
  • For 7 days
  • Water Temperature
  • Satellite Maps
  • Weather Map
  • Weather Widgets
  • user-avatar
    Login

    Hourly Weather Roma

    Today, 19 July, Friday

    Time Temperature Precipitation Wind Pressure Humidity
    00:00 +7°C° 0 mm 1 mps 624 mmHg 35%
    01:00 +6°C° 0 mm 2 mps 624 mmHg 37%
    02:00 +6°C° 0 mm 1 mps 623 mmHg 42%
    03:00 +5°C° 0 mm 1 mps 623 mmHg 44%
    04:00 +5°C° 0 mm 1 mps 623 mmHg 46%
    05:00 +5°C° 0 mm 1 mps 622 mmHg 48%
    06:00 +5°C° 0 mm 1 mps 623 mmHg 43%
    07:00 +6°C° 0 mm 1 mps 623 mmHg 39%
    08:00 +9°C° 0 mm 1 mps 625 mmHg 36%
    09:00 +10°C° 0 mm 2 mps 625 mmHg 33%
    10:00 +12°C° 0 mm 4 mps 626 mmHg 30%
    11:00 +14°C° 0 mm 5 mps 626 mmHg 26%
    12:00 +14°C° 0 mm 6 mps 626 mmHg 28%
    13:00 +15°C° 0 mm 6 mps 625 mmHg 30%
    14:00 +15°C° 0 mm 7 mps 624 mmHg 32%
    15:00 +14°C° 0 mm 6 mps 624 mmHg 37%
    16:00 +14°C° 0 mm 6 mps 624 mmHg 42%
    17:00 +13°C° 0 mm 5 mps 624 mmHg 47%
    18:00 +10°C° 0 mm 4 mps 623 mmHg 60%
    19:00 +8°C° 0 mm 3 mps 622 mmHg 72%
    20:00 +6°C° 0 mm 2 mps 622 mmHg 84%
    21:00 +6°C° 0 mm 2 mps 622 mmHg 85%
    22:00 +6°C° 0 mm 1 mps 622 mmHg 86%
    23:00 +6°C° 0 mm 1 mps 622 mmHg 87%

    Tomorrow, 20 July, Saturday

    Time Temperature Precipitation Wind Pressure Humidity
    00:00 +5°C° 0 mm 2 mps 622 mmHg 88%
    01:00 +5°C° 0 mm 2 mps 622 mmHg 88%
    02:00 +5°C° 0 mm 2 mps 622 mmHg 88%
    03:00 +4°C° 0 mm 2 mps 622 mmHg 91%
    04:00 +3°C° 0 mm 2 mps 622 mmHg 93%
    05:00 +2°C° 0 mm 2 mps 621 mmHg 96%
    06:00 +3°C° 0 mm 2 mps 622 mmHg 94%
    07:00 +3°C° 0 mm 2 mps 623 mmHg 92%
    08:00 +3°C° 0 mm 2 mps 624 mmHg 89%
    09:00 +4°C° 0 mm 3 mps 624 mmHg 74%
    10:00 +5°C° 0 mm 3 mps 624 mmHg 59%
    11:00 +6°C° 0 mm 4 mps 625 mmHg 43%
    12:00 +7°C° 0 mm 5 mps 625 mmHg 36%
    13:00 +8°C° 0 mm 5 mps 624 mmHg 28%
    14:00 +9°C° 0 mm 5 mps 624 mmHg 20%
    15:00 +8°C° 0 mm 5 mps 624 mmHg 22%
    16:00 +6°C° 0 mm 4 mps 624 mmHg 23%
    17:00 +5°C° 0 mm 4 mps 624 mmHg 24%
    18:00 +4°C° 0 mm 3 mps 624 mmHg 30%
    19:00 +3°C° 0 mm 2 mps 624 mmHg 36%
    20:00 +2°C° 0 mm 1 mps 625 mmHg 41%
    21:00 +1°C° 0 mm 1 mps 625 mmHg 44%
    22:00 0°C° 0 mm 1 mps 625 mmHg 47%
    23:00 0°C° 0 mm 1 mps 626 mmHg 51%

    Day after tomorrow, 21 July, Sunday

    Time Temperature Precipitation Wind Pressure Humidity
    00:00 -1°C° 0 mm 1 mps 626 mmHg 52%
    01:00 -1°C° 0 mm 1 mps 625 mmHg 54%
    02:00 -3°C° 0 mm 0 mps 625 mmHg 55%
    03:00 -3°C° 0 mm 0 mps 625 mmHg 54%
    04:00 -3°C° 0 mm 0 mps 625 mmHg 54%
    05:00 -3°C° 0 mm 0 mps 625 mmHg 53%
    06:00 -2°C° 0 mm 0 mps 626 mmHg 46%
    07:00 0°C° 0 mm 1 mps 627 mmHg 39%
    08:00 +2°C° 0 mm 1 mps 627 mmHg 32%
    09:00 +4°C° 0 mm 1 mps 628 mmHg 26%
    10:00 +6°C° 0 mm 2 mps 628 mmHg 20%
    11:00 +9°C° 0 mm 2 mps 628 mmHg 14%
    12:00 +10°C° 0 mm 3 mps 628 mmHg 14%
    13:00 +11°C° 0 mm 3 mps 628 mmHg 13%
    14:00 +12°C° 0 mm 3 mps 627 mmHg 12%
    15:00 +12°C° 0 mm 3 mps 627 mmHg 15%
    16:00 +12°C° 0 mm 2 mps 627 mmHg 18%
    17:00 +10°C° 0 mm 2 mps 626 mmHg 21%
    18:00 +8°C° 0 mm 2 mps 626 mmHg 24%
    19:00 +6°C° 0 mm 2 mps 625 mmHg 27%
    20:00 +4°C° 0 mm 2 mps 625 mmHg 30%
    21:00 +4°C° 0 mm 2 mps 625 mmHg 31%
    22:00 +4°C° 0 mm 2 mps 625 mmHg 32%
    23:00 +4°C° 0 mm 2 mps 625 mmHg 33%

    22 July, Monday

    Time Temperature Precipitation Wind Pressure Humidity
    00:00 +3°C° 0 mm 2 mps 625 mmHg 34%
    01:00 +3°C° 0 mm 2 mps 625 mmHg 36%
    02:00 +3°C° 0 mm 2 mps 624 mmHg 37%
    03:00 +3°C° 0 mm 2 mps 624 mmHg 41%
    04:00 +2°C° 0 mm 2 mps 624 mmHg 45%
    05:00 +2°C° 0 mm 2 mps 624 mmHg 49%
    06:00 +3°C° 0 mm 2 mps 625 mmHg 50%
    07:00 +5°C° 0 mm 1 mps 625 mmHg 52%
    08:00 +6°C° 0 mm 1 mps 626 mmHg 54%
    09:00 +8°C° 0 mm 2 mps 627 mmHg 46%
    10:00 +12°C° 0 mm 2 mps 627 mmHg 39%
    11:00 +13°C° 0 mm 3 mps 627 mmHg 31%
    12:00 +14°C° 0 mm 3 mps 627 mmHg 29%
    13:00 +16°C° 0 mm 3 mps 626 mmHg 26%
    14:00 +17°C° 0 mm 4 mps 625 mmHg 24%
    15:00 +16°C° 0 mm 3 mps 625 mmHg 26%
    16:00 +14°C° 0 mm 3 mps 625 mmHg 29%
    17:00 +14°C° 0 mm 3 mps 624 mmHg 32%
    18:00 +12°C° 0 mm 3 mps 624 mmHg 36%
    19:00 +10°C° 0 mm 3 mps 623 mmHg 41%
    20:00 +8°C° 0 mm 2 mps 623 mmHg 45%
    21:00 +8°C° 0 mm 2 mps 623 mmHg 46%
    22:00 +7°C° 0 mm 2 mps 623 mmHg 47%
    23:00 +7°C° 0 mm 2 mps 623 mmHg 48%

    23 July, Tuesday

    Time Temperature Precipitation Wind Pressure Humidity
    00:00 +7°C° 0 mm 3 mps 623 mmHg 48%
    01:00 +7°C° 0 mm 3 mps 622 mmHg 48%
    02:00 +5°C° 0 mm 3 mps 622 mmHg 48%
    03:00 +5°C° 0 mm 3 mps 622 mmHg 49%
    04:00 +5°C° 0 mm 3 mps 622 mmHg 50%
    05:00 +4°C° 0 mm 3 mps 622 mmHg 52%
    06:00 +5°C° 0 mm 3 mps 622 mmHg 49%
    07:00 +7°C° 0 mm 3 mps 622 mmHg 46%
    08:00 +8°C° 0 mm 3 mps 623 mmHg 43%
    09:00 +10°C° 0 mm 4 mps 623 mmHg 38%
    10:00 +11°C° 0 mm 6 mps 623 mmHg 32%
    11:00 +15°C° 0 mm 7 mps 623 mmHg 27%
    12:00 +16°C° 0 mm 8 mps 623 mmHg 25%
    13:00 +17°C° 0 mm 10 mps 622 mmHg 23%
    14:00 +18°C° 0 mm 11 mps 621 mmHg 22%
    15:00 +18°C° 0 mm 10 mps 621 mmHg 21%
    16:00 +18°C° 0 mm 9 mps 621 mmHg 20%
    17:00 +17°C° 0 mm 9 mps 621 mmHg 19%
    18:00 +16°C° 0 mm 8 mps 620 mmHg 22%
    19:00 +14°C° 0 mm 6 mps 620 mmHg 25%
    20:00 +12°C° 0 mm 5 mps 619 mmHg 28%
    21:00 +10°C° 0 mm 5 mps 619 mmHg 30%
    22:00 +9°C° 0 mm 5 mps 619 mmHg 31%
    23:00 +8°C° 0 mm 4 mps 618 mmHg 33%

    24 July, Wednesday

    Time Temperature Precipitation Wind Pressure Humidity
    00:00 +7°C° 0 mm 4 mps 618 mmHg 34%
    01:00 +6°C° 0 mm 4 mps 618 mmHg 36%
    02:00 +5°C° 0 mm 4 mps 618 mmHg 38%
    03:00 +3°C° 0 mm 5 mps 619 mmHg 53%
    04:00 +2°C° 0 mm 6 mps 619 mmHg 68%
    05:00 +1°C° 0 mm 6 mps 620 mmHg 84%
    06:00 0°C° 0.4 mm 7 mps 621 mmHg 80%
    07:00 -1°C° 0.4 mm 7 mps 622 mmHg 75%
    08:00 -1°C° 0.4 mm 7 mps 623 mmHg 71%
    09:00 -1°C° 0 mm 7 mps 623 mmHg 64%
    10:00 0°C° 0 mm 7 mps 624 mmHg 57%
    11:00 +2°C° 0 mm 7 mps 625 mmHg 49%
    12:00 +3°C° 0 mm 7 mps 625 mmHg 44%
    13:00 +5°C° 0 mm 6 mps 625 mmHg 38%
    14:00 +7°C° 0 mm 6 mps 625 mmHg 32%
    15:00 +6°C° 0 mm 5 mps 625 mmHg 33%
    16:00 +6°C° 0 mm 4 mps 625 mmHg 33%
    17:00 +5°C° 0 mm 3 mps 626 mmHg 34%
    18:00 +5°C° 0 mm 2 mps 625 mmHg 38%
    19:00 +3°C° 0 mm 2 mps 625 mmHg 42%
    20:00 +2°C° 0 mm 1 mps 625 mmHg 46%
    21:00 +1°C° 0 mm 1 mps 625 mmHg 45%
    22:00 +1°C° 0 mm 1 mps 625 mmHg 44%
    23:00 +1°C° 0 mm 1 mps 625 mmHg 43%
    Show more